| time (UTC) | temp F | wind direction | speed knots | gust knots | rain 1hr in | rain 24hr in | rain mn in | humidity % | barometer mb |
| 20260507091021 | 70 | 248 | 0.0 | 0.9 | 0.00 | 0.00 | 0.00 | 100 | 1016.7 |
| 20260507090519 | 70 | 248 | 0.0 | 0.0 | 0.00 | 0.00 | 0.00 | 100 | 1016.6 |
| 20260507090018 | 70 | 248 | 0.0 | 0.0 | 0.00 | 0.00 | 0.00 | 100 | 1016.5 |
| 20260507085521 | 70 | 248 | 0.0 | 0.0 | 0.00 | 0.00 | 0.00 | 100 | 1016.5 |
| 20260507085019 | 70 | 248 | 0.0 | 0.0 | 0.00 | 0.00 | 0.00 | 100 | 1016.5 |
| 20260507084519 | 70 | 248 | 0.0 | 0.9 | 0.00 | 0.00 | 0.00 | 100 | 1016.4 |
| 20260507084017 | 70 | 248 | 0.0 | 0.9 | 0.00 | 0.00 | 0.00 | 100 | 1016.4 |
| 20260507083518 | 70 | 248 | 0.0 | 0.9 | 0.00 | 0.00 | 0.00 | 100 | 1016.4 |
| 20260507083018 | 70 | 248 | 0.0 | 0.9 | 0.00 | 0.00 | 0.00 | 100 | 1016.5 |
| 20260507082518 | 70 | 248 | 0.0 | 0.9 | 0.00 | 0.00 | 0.00 | 100 | 1016.4 |
| 20260507082017 | 70 | 248 | 0.0 | 0.0 | 0.00 | 0.00 | 0.00 | 100 | 1016.4 |
| 20260507081517 | 70 | 248 | 0.0 | 0.0 | 0.00 | 0.00 | 0.00 | 100 | 1016.4 |
| 20260507081018 | 71 | 248 | 0.0 | 0.0 | 0.00 | 0.00 | 0.00 | 100 | 1016.5 |
| 20260507080518 | 71 | 248 | 0.0 | 0.0 | 0.00 | 0.00 | 0.00 | 100 | 1016.5 |
| 20260507080017 | 71 | 248 | 0.0 | 1.7 | 0.00 | 0.00 | 0.00 | 100 | 1016.4 |
| 20260507075516 | 71 | 248 | 0.0 | 0.0 | 0.00 | 0.00 | 0.00 | 100 | 1016.4 |
| 20260507075016 | 70 | 248 | 0.0 | 0.9 | 0.00 | 0.00 | 0.00 | 100 | 1016.5 |
| 20260507074526 | 70 | 248 | 0.0 | 0.9 | 0.00 | 0.00 | 0.00 | 100 | 1016.5 |
| 20260507074014 | 70 | 248 | 0.0 | 0.0 | 0.00 | 0.00 | 0.00 | 100 | 1016.6 |
| 20260507073515 | 70 | 248 | 0.0 | 0.9 | 0.00 | 0.00 | 0.00 | 100 | 1016.5 |
| 20260507073014 | 71 | 248 | 0.0 | 1.7 | 0.00 | 0.00 | 0.00 | 100 | 1016.7 |
| 20260507072513 | 71 | 248 | 0.0 | 0.0 | 0.00 | 0.00 | 0.00 | 100 | 1016.7 |
| 20260507072011 | 71 | 248 | 0.0 | 0.0 | 0.00 | 0.00 | 0.00 | 100 | 1016.7 |
| 20260507071512 | 71 | 248 | 0.0 | 0.0 | 0.00 | 0.00 | 0.00 | 100 | 1016.8 |
| 20260507071011 | 71 | 248 | 0.0 | 0.9 | 0.00 | 0.00 | 0.00 | 100 | 1016.8 |
| 20260507070511 | 71 | 248 | 0.0 | 1.7 | 0.00 | 0.00 | 0.00 | 100 | 1016.8 |
| 20260507070012 | 71 | 248 | 0.0 | 1.7 | 0.00 | 0.00 | 0.00 | 100 | 1017.0 |
| 20260507065513 | 72 | 248 | 0.0 | 1.7 | 0.00 | 0.00 | 0.00 | 100 | 1017.1 |
| 20260507065107 | 72 | 248 | 0.0 | 1.7 | 0.00 | 0.00 | 0.00 | 100 | 1017.3 |
| 20260507064506 | 72 | 248 | 0.0 | 0.9 | 0.00 | 0.00 | 0.00 | 100 | 1017.4 |
| 20260507064009 | 72 | 248 | 0.0 | 0.9 | 0.00 | 0.00 | 0.00 | 100 | 1017.4 |
| 20260507063505 | 72 | 248 | 0.0 | 1.7 | 0.00 | 0.00 | 0.00 | 100 | 1017.4 |
| 20260507063004 | 73 | 248 | 0.0 | 3.5 | 0.00 | 0.00 | 0.00 | 100 | 1017.4 |
| 20260507062502 | 73 | 248 | 0.0 | 3.5 | 0.00 | 0.00 | 0.00 | 100 | 1017.4 |
| 20260507062002 | 73 | 231 | 0.9 | 4.3 | 0.00 | 0.00 | 0.00 | 100 | 1017.4 |
| 20260507061601 | 74 | 242 | 0.9 | 3.5 | 0.00 | 0.00 | 0.00 | 100 | 1017.3 |
| 20260507061102 | 74 | 242 | 0.0 | 3.5 | 0.00 | 0.00 | 0.00 | 100 | 1017.3 |
| 20260507060558 | 75 | 224 | 0.0 | 4.3 | 0.00 | 0.00 | 0.00 | 100 | 1017.4 |
| 20260507060057 | 75 | 223 | 0.0 | 2.6 | 0.00 | 0.00 | 0.00 | 100 | 1017.5 |
| 20260507055555 | 76 | 205 | 0.0 | 2.6 | 0.00 | 0.00 | 0.00 | 100 | 1017.6 |
| 20260507055053 | 76 | 205 | 0.9 | 6.1 | 0.00 | 0.00 | 0.00 | 100 | 1017.6 |
| 20260507054556 | 76 | 161 | 0.9 | 6.1 | 0.00 | 0.00 | 0.00 | 100 | 1017.6 |
| 20260507054052 | 77 | 182 | 0.9 | 4.3 | 0.00 | 0.00 | 0.00 | 100 | 1017.7 |
| 20260507053552 | 77 | 192 | 1.7 | 7.0 | 0.00 | 0.00 | 0.00 | 100 | 1017.7 |
| 20260507053050 | 77 | 162 | 0.9 | 7.0 | 0.00 | 0.00 | 0.00 | 100 | 1017.9 |
| 20260507052553 | 77 | 174 | 0.9 | 8.7 | 0.00 | 0.00 | 0.00 | 100 | 1017.9 |
| 20260507052051 | 77 | 169 | 4.3 | 8.7 | 0.00 | 0.00 | 0.00 | 100 | 1017.8 |
| 20260507051551 | 77 | 140 | 3.5 | 8.7 | 0.00 | 0.00 | 0.00 | 100 | 1017.8 |
| 20260507051050 | 77 | 142 | 3.5 | 9.6 | 0.00 | 0.00 | 0.00 | 100 | 1017.8 |
| 20260507050551 | 77 | 159 | 3.5 | 9.6 | 0.00 | 0.00 | 0.00 | 100 | 1017.8 |
| 20260507050055 | 77 | 160 | 3.5 | 9.6 | 0.00 | 0.00 | 0.00 | 100 | 1017.8 |
| 20260507045549 | 77 | 135 | 5.2 | 9.6 | 0.00 | 0.00 | 0.00 | 100 | 1017.8 |
| 20260507045050 | 77 | 135 | 2.6 | 11.3 | 0.00 | 0.00 | 0.00 | 100 | 1017.9 |
| 20260507044551 | 77 | 138 | 6.1 | 11.3 | 0.00 | 0.00 | 0.00 | 100 | 1017.7 |
| 20260507044048 | 77 | 146 | 2.6 | 10.4 | 0.00 | 0.00 | 0.00 | 100 | 1017.8 |
| 20260507043547 | 77 | 134 | 3.5 | 7.0 | 0.00 | 0.00 | 0.00 | 100 | 1017.8 |
| 20260507043049 | 77 | 133 | 2.6 | 7.8 | 0.00 | 0.00 | 0.00 | 100 | 1017.8 |
| 20260507042547 | 77 | 101 | 2.6 | 7.8 | 0.00 | 0.00 | 0.00 | 100 | 1017.9 |
| 20260507042050 | 77 | 150 | 2.6 | 7.8 | 0.00 | 0.00 | 0.00 | 100 | 1017.9 |
| 20260507041548 | 77 | 139 | 1.7 | 8.7 | 0.00 | 0.00 | 0.00 | 100 | 1017.9 |
| 20260507041049 | 77 | 104 | 2.6 | 8.7 | 0.00 | 0.00 | 0.00 | 100 | 1017.9 |
| 20260507040547 | 77 | 161 | 3.5 | 7.8 | 0.00 | 0.00 | 0.00 | 100 | 1018.1 |
| 20260507040045 | 77 | 158 | 1.7 | 9.6 | 0.00 | 0.00 | 0.00 | 100 | 1018.0 |
| 20260507035544 | 77 | 145 | 4.3 | 7.8 | 0.00 | 0.00 | 0.00 | 100 | 1017.9 |
| 20260507035043 | 77 | 150 | 2.6 | 7.0 | 0.00 | 0.00 | 0.00 | 100 | 1017.8 |
| 20260507034557 | 77 | 134 | 2.6 | 7.0 | 0.00 | 0.00 | 0.00 | 100 | 1017.8 |
| 20260507034042 | 77 | 127 | 3.5 | 8.7 | 0.00 | 0.00 | 0.00 | 100 | 1017.8 |
| 20260507033542 | 77 | 155 | 2.6 | 8.7 | 0.00 | 0.00 | 0.00 | 100 | 1017.7 |
| 20260507033100 | 77 | 136 | 2.6 | 8.7 | 0.00 | 0.00 | 0.00 | 100 | 1017.8 |
| 20260507032544 | 77 | 117 | 3.5 | 9.6 | 0.00 | 0.00 | 0.00 | 100 | 1017.7 |
| 20260507032043 | 77 | 115 | 4.3 | 9.6 | 0.00 | 0.00 | 0.00 | 100 | 1017.7 |
| 20260507031541 | 77 | 146 | 2.6 | 8.7 | 0.00 | 0.00 | 0.00 | 100 | 1017.9 |
| 20260507031144 | 77 | 140 | 2.6 | 8.7 | 0.00 | 0.00 | 0.00 | 100 | 1018.0 |
| 20260507030545 | 77 | 126 | 4.3 | 8.7 | 0.00 | 0.00 | 0.00 | 100 | 1017.9 |
| 20260507030041 | 77 | 140 | 3.5 | 8.7 | 0.00 | 0.00 | 0.00 | 100 | 1017.9 |
| 20260507025540 | 77 | 112 | 3.5 | 8.7 | 0.00 | 0.00 | 0.00 | 100 | 1017.8 |
| 20260507025041 | 78 | 144 | 2.6 | 7.8 | 0.00 | 0.00 | 0.00 | 100 | 1017.8 |
| 20260507024551 | 78 | 118 | 2.6 | 10.4 | 0.00 | 0.00 | 0.00 | 100 | 1018.0 |
| 20260507024043 | 78 | 114 | 3.5 | 10.4 | 0.00 | 0.00 | 0.00 | 100 | 1018.0 |
| 20260507023545 | 78 | 120 | 2.6 | 7.8 | 0.00 | 0.00 | 0.00 | 100 | 1018.1 |
| 20260507023039 | 78 | 113 | 3.5 | 7.8 | 0.00 | 0.00 | 0.00 | 100 | 1017.9 |
| 20260507022539 | 78 | 96 | 3.5 | 7.8 | 0.00 | 0.00 | 0.00 | 100 | 1018.1 |
| 20260507022039 | 78 | 136 | 3.5 | 7.8 | 0.00 | 0.00 | 0.00 | 100 | 1018.2 |
| 20260507021539 | 78 | 142 | 2.6 | 7.8 | 0.00 | 0.00 | 0.00 | 100 | 1018.2 |
| 20260507021041 | 78 | 115 | 3.5 | 8.7 | 0.00 | 0.00 | 0.00 | 100 | 1018.2 |
| 20260507020538 | 78 | 139 | 3.5 | 8.7 | 0.00 | 0.00 | 0.00 | 100 | 1018.1 |
| 20260507020039 | 78 | 144 | 3.5 | 7.8 | 0.00 | 0.00 | 0.00 | 100 | 1018.1 |
| 20260507015537 | 78 | 130 | 3.5 | 8.7 | 0.00 | 0.00 | 0.00 | 100 | 1018.0 |
| 20260507015039 | 78 | 145 | 4.3 | 8.7 | 0.00 | 0.00 | 0.00 | 100 | 1018.1 |
| 20260507014538 | 78 | 135 | 2.6 | 7.8 | 0.00 | 0.00 | 0.00 | 100 | 1018.0 |
| 20260507014038 | 78 | 137 | 3.5 | 7.8 | 0.00 | 0.00 | 0.00 | 100 | 1018.0 |
| 20260507013640 | 78 | 141 | 3.5 | 7.8 | 0.00 | 0.00 | 0.00 | 100 | 1018.0 |
| 20260507013039 | 78 | 161 | 3.5 | 7.8 | 0.00 | 0.00 | 0.00 | 100 | 1018.0 |
| 20260507012537 | 78 | 93 | 2.6 | 8.7 | 0.00 | 0.00 | 0.00 | 100 | 1018.1 |
| 20260507012037 | 78 | 121 | 2.6 | 8.7 | 0.00 | 0.00 | 0.00 | 100 | 1018.0 |
| 20260507011539 | 78 | 110 | 1.7 | 7.0 | 0.00 | 0.00 | 0.00 | 100 | 1017.9 |
| 20260507011035 | 78 | 153 | 4.3 | 7.0 | 0.00 | 0.00 | 0.00 | 100 | 1017.9 |
| 20260507010535 | 78 | 142 | 2.6 | 7.0 | 0.00 | 0.00 | 0.00 | 100 | 1017.9 |
| 20260507010039 | 78 | 137 | 2.6 | 7.8 | 0.00 | 0.00 | 0.00 | 100 | 1017.9 |
| 20260507005536 | 78 | 142 | 3.5 | 7.8 | 0.00 | 0.00 | 0.00 | 100 | 1017.9 |
| 20260507005035 | 78 | 134 | 3.5 | 7.0 | 0.00 | 0.00 | 0.00 | 100 | 1017.8 |
| 20260507004535 | 78 | 130 | 3.5 | 7.8 | 0.00 | 0.00 | 0.00 | 100 | 1017.8 |
| 20260507004035 | 79 | 148 | 3.5 | 7.8 | 0.00 | 0.00 | 0.00 | 100 | 1017.8 |
| 20260507003535 | 79 | 120 | 3.5 | 7.0 | 0.00 | 0.00 | 0.00 | 100 | 1017.7 |
| 20260507003035 | 79 | 159 | 2.6 | 7.8 | 0.00 | 0.00 | 0.00 | 100 | 1017.7 |
| 20260507002534 | 79 | 130 | 2.6 | 7.8 | 0.00 | 0.00 | 0.00 | 100 | 1017.6 |
| 20260507002034 | 79 | 136 | 3.5 | 7.8 | 0.00 | 0.00 | 0.00 | 100 | 1017.6 |
| 20260507001549 | 79 | 167 | 3.5 | 7.8 | 0.00 | 0.00 | 0.00 | 100 | 1017.7 |
| 20260507001038 | 79 | 140 | 3.5 | 9.6 | 0.00 | 0.00 | 0.00 | 100 | 1017.7 |
| 20260507000533 | 79 | 159 | 4.3 | 9.6 | 0.00 | 0.00 | 0.00 | 100 | 1017.6 |
| 20260507000033 | 79 | 124 | 2.6 | 7.8 | 0.00 | 0.00 | 0.00 | 100 | 1017.5 |
| 20260506235534 | 79 | 135 | 3.5 | 8.7 | 0.00 | 0.00 | 0.00 | 100 | 1017.6 |
| 20260506235036 | 79 | 150 | 4.3 | 11.3 | 0.00 | 0.00 | 0.00 | 100 | 1017.6 |
| 20260506234546 | 79 | 141 | 4.3 | 8.7 | 0.00 | 0.00 | 0.00 | 100 | 1017.5 |
| 20260506234033 | 80 | 128 | 3.5 | 8.7 | 0.00 | 0.00 | 0.00 | 100 | 1017.7 |
| 20260506233533 | 80 | 109 | 3.5 | 8.7 | 0.00 | 0.00 | 0.00 | 100 | 1017.6 |
| 20260506233032 | 80 | 156 | 4.3 | 8.7 | 0.00 | 0.00 | 0.00 | 100 | 1017.7 |
| 20260506232533 | 80 | 139 | 3.5 | 8.7 | 0.00 | 0.00 | 0.00 | 100 | 1017.6 |
| 20260506232048 | 80 | 159 | 4.3 | 8.7 | 0.00 | 0.00 | 0.00 | 100 | 1017.7 |
| 20260506231534 | 80 | 134 | 5.2 | 9.6 | 0.00 | 0.00 | 0.00 | 100 | 1017.7 |
| 20260506231029 | 81 | 116 | 3.5 | 9.6 | 0.00 | 0.00 | 0.00 | 100 | 1017.8 |
| 20260506230532 | 81 | 111 | 2.6 | 8.7 | 0.00 | 0.00 | 0.00 | 100 | 1017.8 |
| 20260506230028 | 81 | 134 | 3.5 | 10.4 | 0.00 | 0.00 | 0.00 | 100 | 1017.7 |
| 20260506225531 | 81 | 150 | 4.3 | 9.6 | 0.00 | 0.00 | 0.00 | 100 | 1017.7 |
| 20260506225028 | 81 | 116 | 2.6 | 8.7 | 0.00 | 0.00 | 0.00 | 100 | 1017.7 |
| 20260506224530 | 81 | 138 | 2.6 | 10.4 | 0.00 | 0.00 | 0.00 | 100 | 1017.6 |
| 20260506224028 | 81 | 159 | 4.3 | 11.3 | 0.00 | 0.00 | 0.00 | 100 | 1017.5 |
| 20260506223527 | 81 | 117 | 5.2 | 11.3 | 0.00 | 0.00 | 0.00 | 100 | 1017.6 |
| 20260506223029 | 81 | 150 | 5.2 | 10.4 | 0.00 | 0.00 | 0.00 | 100 | 1017.5 |
| 20260506222527 | 81 | 131 | 2.6 | 11.3 | 0.00 | 0.00 | 0.00 | 100 | 1017.6 |
| 20260506222026 | 81 | 132 | 6.1 | 11.3 | 0.00 | 0.00 | 0.00 | 100 | 1017.6 |
| 20260506221526 | 81 | 119 | 4.3 | 12.2 | 0.00 | 0.00 | 0.00 | 100 | 1017.7 |
| 20260506221026 | 81 | 178 | 6.1 | 12.2 | 0.00 | 0.00 | 0.00 | 100 | 1017.5 |
| 20260506220526 | 81 | 128 | 3.5 | 13.0 | 0.00 | 0.00 | 0.00 | 100 | 1017.6 |
| 20260506220035 | 82 | 154 | 6.1 | 13.0 | 0.00 | 0.00 | 0.00 | 100 | 1017.6 |
| 20260506215526 | 82 | 160 | 3.5 | 9.6 | 0.00 | 0.00 | 0.00 | 100 | 1017.7 |
| 20260506215026 | 82 | 148 | 3.5 | 9.6 | 0.00 | 0.00 | 0.00 | 100 | 1017.7 |
| 20260506214527 | 82 | 136 | 3.5 | 7.8 | 0.00 | 0.00 | 0.00 | 100 | 1017.6 |
| 20260506214028 | 82 | 155 | 3.5 | 7.8 | 0.00 | 0.00 | 0.00 | 100 | 1017.7 |
| 20260506213525 | 82 | 99 | 3.5 | 9.6 | 0.00 | 0.00 | 0.00 | 100 | 1017.7 |
| 20260506213024 | 82 | 113 | 4.3 | 10.4 | 0.00 | 0.00 | 0.00 | 100 | 1017.6 |
| 20260506212527 | 82 | 103 | 5.2 | 10.4 | 0.00 | 0.00 | 0.00 | 100 | 1017.7 |
| 20260506212024 | 82 | 109 | 4.3 | 10.4 | 0.00 | 0.00 | 0.00 | 100 | 1017.7 |
| 20260506211524 | 82 | 144 | 4.3 | 9.6 | 0.00 | 0.00 | 0.00 | 100 | 1017.7 |
| 20260506211024 | 82 | 116 | 3.5 | 9.6 | 0.00 | 0.00 | 0.00 | 100 | 1017.7 |
| 20260506210524 | 83 | 167 | 5.2 | 10.4 | 0.00 | 0.00 | 0.00 | 100 | 1017.7 |
| 20260506210023 | 82 | 153 | 4.3 | 10.4 | 0.00 | 0.00 | 0.00 | 100 | 1017.8 |
| 20260506205523 | 82 | 138 | 3.5 | 9.6 | 0.00 | 0.00 | 0.00 | 100 | 1017.8 |
| 20260506205023 | 83 | 128 | 3.5 | 7.8 | 0.00 | 0.00 | 0.00 | 100 | 1017.8 |
| 20260506204523 | 83 | 147 | 3.5 | 10.4 | 0.00 | 0.00 | 0.00 | 100 | 1017.7 |
| 20260506204023 | 82 | 134 | 4.3 | 10.4 | 0.00 | 0.00 | 0.00 | 100 | 1017.7 |
| 20260506203524 | 82 | 158 | 4.3 | 9.6 | 0.00 | 0.00 | 0.00 | 100 | 1017.7 |
| 20260506203025 | 83 | 154 | 2.6 | 11.3 | 0.00 | 0.00 | 0.00 | 100 | 1017.7 |
| 20260506202523 | 82 | 124 | 6.1 | 11.3 | 0.00 | 0.00 | 0.00 | 100 | 1017.8 |
| 20260506202025 | 83 | 107 | 2.6 | 7.8 | 0.00 | 0.00 | 0.00 | 100 | 1017.7 |
| 20260506201522 | 83 | 150 | 3.5 | 10.4 | 0.00 | 0.00 | 0.00 | 100 | 1017.8 |
| 20260506201022 | 82 | 102 | 4.3 | 12.2 | 0.00 | 0.00 | 0.00 | 100 | 1017.9 |
| 20260506200521 | 83 | 111 | 4.3 | 12.2 | 0.00 | 0.00 | 0.00 | 100 | 1017.9 |
| 20260506200021 | 83 | 126 | 3.5 | 13.9 | 0.00 | 0.00 | 0.00 | 100 | 1017.9 |
| 20260506195522 | 82 | 113 | 7.0 | 14.8 | 0.00 | 0.00 | 0.00 | 100 | 1017.9 |
| 20260506195021 | 82 | 131 | 7.0 | 11.3 | 0.00 | 0.00 | 0.00 | 100 | 1017.9 |
| 20260506194531 | 83 | 146 | 4.3 | 11.3 | 0.00 | 0.00 | 0.00 | 100 | 1017.9 |
| 20260506194023 | 83 | 150 | 5.2 | 11.3 | 0.00 | 0.00 | 0.00 | 100 | 1018.0 |
| 20260506193522 | 83 | 145 | 7.0 | 11.3 | 0.00 | 0.00 | 0.00 | 100 | 1017.9 |
| 20260506193020 | 84 | 154 | 3.5 | 8.7 | 0.00 | 0.00 | 0.00 | 100 | 1017.9 |
| 20260506192520 | 83 | 115 | 4.3 | 9.6 | 0.00 | 0.00 | 0.00 | 100 | 1017.9 |
| 20260506192020 | 83 | 162 | 4.3 | 10.4 | 0.00 | 0.00 | 0.00 | 100 | 1018.1 |
| 20260506191520 | 83 | 112 | 4.3 | 9.6 | 0.00 | 0.00 | 0.00 | 100 | 1018.1 |
| 20260506191020 | 83 | 144 | 4.3 | 9.6 | 0.00 | 0.00 | 0.00 | 100 | 1018.2 |
| 20260506190542 | 83 | 104 | 3.5 | 10.4 | 0.00 | 0.00 | 0.00 | 100 | 1018.3 |
| 20260506190020 | 83 | 142 | 3.5 | 10.4 | 0.00 | 0.00 | 0.00 | 100 | 1018.3 |
| 20260506185519 | 83 | 169 | 4.3 | 9.6 | 0.00 | 0.00 | 0.00 | 100 | 1018.3 |
| 20260506185019 | 83 | 154 | 3.5 | 10.4 | 0.00 | 0.00 | 0.00 | 100 | 1018.4 |
| 20260506184527 | 83 | 96 | 2.6 | 10.4 | 0.00 | 0.00 | 0.00 | 100 | 1018.4 |
| 20260506184019 | 83 | 157 | 6.1 | 10.4 | 0.00 | 0.00 | 0.00 | 100 | 1018.5 |
| 20260506183519 | 83 | 191 | 4.3 | 9.6 | 0.00 | 0.00 | 0.00 | 100 | 1018.6 |
| 20260506183019 | 83 | 149 | 4.3 | 9.6 | 0.00 | 0.00 | 0.00 | 100 | 1018.6 |
| 20260506182518 | 84 | 106 | 4.3 | 9.6 | 0.00 | 0.00 | 0.00 | 100 | 1018.7 |
| 20260506182021 | 83 | 106 | 3.5 | 8.7 | 0.00 | 0.00 | 0.00 | 100 | 1018.6 |
| 20260506181517 | 83 | 121 | 3.5 | 8.7 | 0.00 | 0.00 | 0.00 | 100 | 1018.6 |
| 20260506181017 | 83 | 166 | 5.2 | 9.6 | 0.00 | 0.00 | 0.00 | 100 | 1018.7 |
| 20260506180517 | 83 | 168 | 6.1 | 9.6 | 0.00 | 0.00 | 0.00 | 100 | 1018.8 |
| 20260506180017 | 84 | 133 | 2.6 | 7.0 | 0.00 | 0.00 | 0.00 | 100 | 1018.7 |
| 20260506175518 | 83 | 84 | 1.7 | 8.7 | 0.00 | 0.00 | 0.00 | 100 | 1018.8 |
| 20260506175019 | 83 | 162 | 3.5 | 8.7 | 0.00 | 0.00 | 0.00 | 100 | 1018.7 |
| 20260506174515 | 83 | 109 | 1.7 | 8.7 | 0.00 | 0.00 | 0.00 | 100 | 1018.8 |
| 20260506174016 | 83 | 117 | 4.3 | 8.7 | 0.00 | 0.00 | 0.00 | 100 | 1018.9 |
| 20260506173516 | 83 | 171 | 3.5 | 7.8 | 0.00 | 0.00 | 0.00 | 100 | 1018.8 |
| 20260506173020 | 82 | 125 | 3.5 | 9.6 | 0.00 | 0.00 | 0.00 | 100 | 1018.8 |
| 20260506172515 | 82 | 132 | 6.1 | 9.6 | 0.00 | 0.00 | 0.00 | 100 | 1018.8 |
| 20260506172014 | 82 | 163 | 5.2 | 9.6 | 0.00 | 0.00 | 0.00 | 100 | 1018.8 |
| 20260506171518 | 82 | 74 | 4.3 | 8.7 | 0.00 | 0.00 | 0.00 | 100 | 1018.9 |
| 20260506171013 | 82 | 162 | 4.3 | 8.7 | 0.00 | 0.00 | 0.00 | 100 | 1018.9 |
| 20260506170514 | 82 | 146 | 3.5 | 9.6 | 0.00 | 0.00 | 0.00 | 100 | 1018.9 |
| 20260506170016 | 82 | 159 | 4.3 | 9.6 | 0.00 | 0.00 | 0.00 | 100 | 1019.0 |
| 20260506165513 | 83 | 126 | 4.3 | 8.7 | 0.00 | 0.00 | 0.00 | 100 | 1019.0 |
| 20260506165013 | 82 | 192 | 3.5 | 9.6 | 0.00 | 0.00 | 0.00 | 100 | 1018.9 |
| 20260506164515 | 82 | 149 | 5.2 | 8.7 | 0.00 | 0.00 | 0.00 | 100 | 1019.0 |
| 20260506164012 | 82 | 150 | 4.3 | 7.8 | 0.00 | 0.00 | 0.00 | 100 | 1019.0 |
| 20260506163512 | 82 | 110 | 3.5 | 9.6 | 0.00 | 0.00 | 0.00 | 100 | 1019.0 |
| 20260506163012 | 81 | 117 | 5.2 | 9.6 | 0.00 | 0.00 | 0.00 | 100 | 1019.0 |
| 20260506162511 | 82 | 132 | 3.5 | 7.8 | 0.00 | 0.00 | 0.00 | 100 | 1019.1 |
| 20260506162012 | 82 | 86 | 4.3 | 11.3 | 0.00 | 0.00 | 0.00 | 100 | 1019.1 |
| 20260506161512 | 82 | 155 | 2.6 | 11.3 | 0.00 | 0.00 | 0.00 | 100 | 1019.1 |
| 20260506161010 | 82 | 119 | 1.7 | 9.6 | 0.00 | 0.00 | 0.00 | 100 | 1019.2 |
| 20260506160516 | 81 | 169 | 5.2 | 9.6 | 0.00 | 0.00 | 0.00 | 100 | 1019.2 |
| 20260506160013 | 81 | 118 | 2.6 | 10.4 | 0.00 | 0.00 | 0.00 | 100 | 1019.3 |
| 20260506155509 | 81 | 112 | 3.5 | 9.6 | 0.00 | 0.00 | 0.00 | 100 | 1019.4 |
| 20260506155009 | 81 | 115 | 3.5 | 9.6 | 0.00 | 0.00 | 0.00 | 100 | 1019.4 |
| 20260506154515 | 81 | 124 | 3.5 | 9.6 | 0.00 | 0.00 | 0.00 | 100 | 1019.3 |
| 20260506154008 | 80 | 134 | 4.3 | 9.6 | 0.00 | 0.00 | 0.00 | 100 | 1019.4 |
| 20260506153508 | 80 | 138 | 6.1 | 10.4 | 0.00 | 0.00 | 0.00 | 100 | 1019.3 |
| 20260506153007 | 80 | 159 | 4.3 | 10.4 | 0.00 | 0.00 | 0.00 | 100 | 1019.3 |
| 20260506152509 | 80 | 156 | 3.5 | 9.6 | 0.00 | 0.00 | 0.00 | 100 | 1019.3 |
| 20260506152009 | 80 | 150 | 6.1 | 9.6 | 0.00 | 0.00 | 0.00 | 100 | 1019.2 |
| 20260506151507 | 80 | 158 | 2.6 | 9.6 | 0.00 | 0.00 | 0.00 | 100 | 1019.3 |
| 20260506151006 | 80 | 117 | 4.3 | 9.6 | 0.00 | 0.00 | 0.00 | 100 | 1019.2 |
| 20260506150506 | 80 | 147 | 3.5 | 9.6 | 0.00 | 0.00 | 0.00 | 100 | 1019.2 |
| 20260506150006 | 79 | 132 | 2.6 | 9.6 | 0.00 | 0.00 | 0.00 | 100 | 1019.2 |
| 20260506145505 | 79 | 160 | 4.3 | 9.6 | 0.00 | 0.00 | 0.00 | 100 | 1019.2 |
| 20260506145005 | 79 | 120 | 5.2 | 9.6 | 0.00 | 0.00 | 0.00 | 100 | 1019.1 |
| 20260506144504 | 80 | 146 | 3.5 | 8.7 | 0.00 | 0.00 | 0.00 | 100 | 1019.1 |
| 20260506144008 | 79 | 139 | 4.3 | 8.7 | 0.00 | 0.00 | 0.00 | 100 | 1019.0 |
| 20260506143503 | 80 | 183 | 2.6 | 7.0 | 0.00 | 0.00 | 0.00 | 100 | 1019.0 |
| 20260506143002 | 80 | 139 | 1.7 | 7.0 | 0.00 | 0.00 | 0.00 | 100 | 1018.9 |
| 20260506142504 | 79 | 117 | 1.7 | 7.8 | 0.00 | 0.00 | 0.00 | 100 | 1018.9 |
| 20260506142004 | 79 | 166 | 5.2 | 8.7 | 0.00 | 0.00 | 0.00 | 100 | 1019.0 |
| 20260506141600 | 78 | 192 | 4.3 | 8.7 | 0.00 | 0.00 | 0.00 | 100 | 1019.0 |
| 20260506141102 | 79 | 171 | 4.3 | 8.7 | 0.00 | 0.00 | 0.00 | 100 | 1018.9 |
| 20260506140600 | 79 | 120 | 2.6 | 7.8 | 0.00 | 0.00 | 0.00 | 100 | 1018.9 |
| 20260506140100 | 78 | 144 | 3.5 | 7.8 | 0.00 | 0.00 | 0.00 | 100 | 1019.0 |
| 20260506135559 | 78 | 163 | 4.3 | 7.0 | 0.00 | 0.00 | 0.00 | 100 | 1018.9 |
| 20260506135059 | 79 | 110 | 1.7 | 6.1 | 0.00 | 0.00 | 0.00 | 100 | 1018.9 |
| 20260506134600 | 79 | 144 | 2.6 | 6.1 | 0.00 | 0.00 | 0.00 | 100 | 1018.9 |
| 20260506134057 | 78 | 125 | 1.7 | 6.1 | 0.00 | 0.00 | 0.00 | 100 | 1018.8 |
| 20260506133557 | 78 | 159 | 1.7 | 7.0 | 0.00 | 0.00 | 0.00 | 100 | 1018.6 |
| 20260506133111 | 78 | 136 | 3.5 | 8.7 | 0.00 | 0.00 | 0.00 | 100 | 1018.6 |
| 20260506132556 | 78 | 123 | 2.6 | 7.0 | 0.00 | 0.00 | 0.00 | 100 | 1018.7 |
| 20260506132056 | 78 | 126 | 2.6 | 7.8 | 0.00 | 0.00 | 0.00 | 100 | 1018.7 |
| 20260506131602 | 78 | 142 | 4.3 | 7.8 | 0.00 | 0.00 | 0.00 | 100 | 1018.6 |
| 20260506131056 | 78 | 142 | 2.6 | 6.1 | 0.00 | 0.00 | 0.00 | 100 | 1018.6 |
| 20260506130554 | 78 | 164 | 3.5 | 7.0 | 0.00 | 0.00 | 0.00 | 100 | 1018.6 |
| 20260506130056 | 77 | 153 | 3.5 | 7.8 | 0.00 | 0.00 | 0.00 | 100 | 1018.6 |
| 20260506125552 | 77 | 153 | 4.3 | 7.8 | 0.00 | 0.00 | 0.00 | 100 | 1018.6 |
| 20260506125052 | 78 | 108 | 1.7 | 7.8 | 0.00 | 0.00 | 0.00 | 100 | 1018.5 |
| 20260506124557 | 77 | 157 | 1.7 | 7.8 | 0.00 | 0.00 | 0.00 | 100 | 1018.5 |
| 20260506124053 | 77 | 153 | 3.5 | 8.7 | 0.00 | 0.00 | 0.00 | 100 | 1018.5 |
| 20260506123550 | 77 | 158 | 4.3 | 8.7 | 0.00 | 0.00 | 0.00 | 100 | 1018.5 |
| 20260506123051 | 77 | 159 | 2.6 | 7.0 | 0.00 | 0.00 | 0.00 | 100 | 1018.5 |
| 20260506122549 | 77 | 162 | 0.9 | 6.1 | 0.00 | 0.00 | 0.00 | 100 | 1018.5 |
| 20260506122047 | 76 | 155 | 1.7 | 7.0 | 0.00 | 0.00 | 0.00 | 100 | 1018.4 |
| 20260506121547 | 76 | 122 | 0.9 | 7.0 | 0.00 | 0.00 | 0.00 | 100 | 1018.2 |
| 20260506121047 | 76 | 159 | 2.6 | 6.1 | 0.00 | 0.00 | 0.00 | 100 | 1018.2 |
| 20260506120549 | 76 | 129 | 0.9 | 3.5 | 0.00 | 0.00 | 0.00 | 100 | 1018.3 |
| 20260506120047 | 75 | 122 | 0.0 | 3.5 | 0.00 | 0.00 | 0.00 | 100 | 1018.3 |
| 20260506115546 | 75 | 121 | 0.0 | 0.0 | 0.00 | 0.00 | 0.00 | 100 | 1018.3 |
| 20260506115046 | 74 | 121 | 0.0 | 0.0 | 0.00 | 0.00 | 0.00 | 100 | 1018.3 |
| 20260506114546 | 74 | 121 | 0.0 | 0.0 | 0.00 | 0.00 | 0.00 | 100 | 1018.3 |
| 20260506114047 | 73 | 121 | 0.0 | 0.0 | 0.00 | 0.00 | 0.00 | 100 | 1018.3 |
| 20260506113545 | 73 | 121 | 0.0 | 0.0 | 0.00 | 0.00 | 0.00 | 100 | 1018.3 |
| 20260506113045 | 73 | 121 | 0.0 | 0.0 | 0.00 | 0.00 | 0.00 | 100 | 1018.4 |
| 20260506112548 | 73 | 121 | 0.0 | 0.0 | 0.00 | 0.00 | 0.00 | 100 | 1018.4 |
| 20260506112044 | 73 | 121 | 0.0 | 0.0 | 0.00 | 0.00 | 0.00 | 100 | 1018.3 |
| 20260506111544 | 73 | 121 | 0.0 | 0.0 | 0.00 | 0.00 | 0.00 | 100 | 1018.2 |
| 20260506111044 | 73 | 121 | 0.0 | 0.0 | 0.00 | 0.00 | 0.00 | 100 | 1018.1 |
| 20260506110544 | 73 | 121 | 0.0 | 0.0 | 0.00 | 0.00 | 0.00 | 100 | 1018.1 |
| 20260506110044 | 73 | 121 | 0.0 | 0.0 | 0.00 | 0.00 | 0.00 | 100 | 1018.1 |
| 20260506105546 | 73 | 121 | 0.0 | 0.0 | 0.00 | 0.00 | 0.00 | 100 | 1018.0 |
| 20260506105046 | 73 | 121 | 0.0 | 0.0 | 0.00 | 0.00 | 0.00 | 100 | 1017.8 |
| 20260506104549 | 73 | 121 | 0.0 | 0.0 | 0.00 | 0.00 | 0.00 | 100 | 1017.7 |
| 20260506104043 | 73 | 121 | 0.0 | 0.0 | 0.00 | 0.00 | 0.00 | 100 | 1017.6 |
| 20260506103542 | 73 | 121 | 0.0 | 0.0 | 0.00 | 0.00 | 0.00 | 100 | 1017.6 |
| 20260506103042 | 73 | 121 | 0.0 | 0.0 | 0.00 | 0.00 | 0.00 | 100 | 1017.6 |
| 20260506102541 | 74 | 121 | 0.0 | 0.0 | 0.00 | 0.00 | 0.00 | 100 | 1017.6 |
| 20260506102041 | 74 | 121 | 0.0 | 0.0 | 0.00 | 0.00 | 0.00 | 100 | 1017.6 |
| 20260506101541 | 74 | 121 | 0.0 | 0.0 | 0.00 | 0.00 | 0.00 | 100 | 1017.5 |
| 20260506101040 | 74 | 121 | 0.0 | 0.0 | 0.00 | 0.00 | 0.00 | 100 | 1017.4 |
| 20260506100540 | 74 | 121 | 0.0 | 0.0 | 0.00 | 0.00 | 0.00 | 100 | 1017.4 |
| 20260506100040 | 74 | 121 | 0.0 | 0.0 | 0.00 | 0.00 | 0.00 | 100 | 1017.4 |
| 20260506095542 | 74 | 121 | 0.0 | 0.0 | 0.00 | 0.00 | 0.00 | 100 | 1017.4 |
| 20260506095042 | 74 | 121 | 0.0 | 0.0 | 0.00 | 0.00 | 0.00 | 100 | 1017.3 |
| 20260506094549 | 74 | 121 | 0.0 | 0.0 | 0.00 | 0.00 | 0.00 | 100 | 1017.4 |
| 20260506094041 | 74 | 121 | 0.0 | 0.0 | 0.00 | 0.00 | 0.00 | 100 | 1017.4 |
| 20260506093540 | 74 | 121 | 0.0 | 0.0 | 0.00 | 0.00 | 0.00 | 100 | 1017.5 |
| 20260506093040 | 74 | 121 | 0.0 | 0.0 | 0.00 | 0.00 | 0.00 | 100 | 1017.4 |
| 20260506092538 | 74 | 121 | 0.0 | 0.0 | 0.00 | 0.00 | 0.00 | 100 | 1017.4 |
| 20260506092038 | 74 | 121 | 0.0 | 0.0 | 0.00 | 0.00 | 0.00 | 100 | 1017.3 |
| 20260506091538 | 74 | 121 | 0.0 | 0.0 | 0.00 | 0.00 | 0.00 | 100 | 1017.2 |